Location: *
(50.9167°S, 179.4000°W)
Time: 19:27:15
(UTC+00:00)

CZ-2C R/B - Pass Details

Date: 19 June 2024
Orbit: 665 x 779 km, 98.4° (Epoch: 18 July)

Event Time Altitude Azimuth Distance (km) Brightness Sun altitude
Rises 04:43:14 0° 171° (S) 3,308 5.4 -6.9°
Reaches altitude 10° 04:45:44 10° 179° (S) 2,375 4.8 -7.3°
Maximum altitude 04:50:28 35° 243° (WSW) 1,253 4.0 -7.9°
Drops below altitude 10° 04:55:08 10° 308° (NW) 2,333 6.6 -8.6°
Sets 04:57:34 0° 316° (NW) 3,241 7.3 -8.9°
